sat.trackr.live / text

‹ back to catalog

CE-SAT-IE

NORAD 58987 · 2024-032A

PAYLOAD ACTIVE UNKNOWN

§ Identity

Operator
Country
JPN
Launch date
2024-02-17
Launch site
TANSC
Launch vehicle
Mass (kg)
RCS (m²)

External: N2YO · Heavens-Above · Gunter

§ Orbital elements

Epoch: 2026-09-22T22:59:38.339232Z

Period
98.07 min
Inclination
97.9860°
Eccentricity
0.0003907
Mean motion
14.68353864 rev/d
Perigee alt
663.6 km
Apogee alt
669.1 km
Semi-major
7,044.5 km
B*
5.2073e-5
RAAN
318.4029°
Arg perigee
117.8730°
Mean anomaly
242.2871°
Rev number
13,918

§ Raw data

CE-SAT-IE1 58987U 24032A   26265.95808263  .00000253  00000+0  52073-4 0  99902 58987  97.9860 318.4029 0003907 117.8730 242.2871 14.68353864139187

JSON: /api/v1/satellites/58987 · /tle

For live sub-satellite position, see the globe view (requires WebGL).

§ Visibility from observer

Set your observer location to see the next 7 days of passes ≥ 10°. The values pass through the URL so the page stays shareable.

No JS? Fill the form by hand. The geolocation button needs JavaScript.